Location: Burbank
(38.7788°N, 114.0429°W)
Time: 02:32:27
(UTC+00:00)

Vanguard 3 - Visible Passes

Search period start: 14 May 2026 00:00
Search period end: 24 May 2026 00:00
Orbit: 507 x 3205 km, 33.4° (Epoch: 13 May)

Date Brightness Start Highest point End Pass type
(mag) Time Alt. Az. Time Alt. Az. Time Alt. Az.
14 May 9.8 04:02:38 10° W 04:13:31 27° SW 04:20:08 12° S visible
15 May 10.2 04:56:34 10° WSW 05:01:44 14° SW 05:05:58 10° SSW visible
16 May 10.0 03:27:57 10° W 03:40:23 30° SW 03:48:43 10° SSE visible
17 May 10.3 04:21:36 10° W 04:28:42 16° SW 04:34:19 10° SSW visible
18 May 10.2 02:53:13 10° W 03:07:03 32° SW 03:16:31 10° SSE visible
19 May 10.5 03:46:41 10° W 03:55:30 18° SW 04:02:22 10° SSW visible
21 May 10.6 03:11:47 10° W 03:22:06 20° SW 03:30:12 10° S visible
